{"data":{"norad_id":81406,"epoch":"2026-05-15T09:31:19.046208Z","epoch_age_seconds":904935,"freshness":"AGED","line1":"1 81406U          26135.39674822  .00000942  00000+0  39158-3 0  9990","line2":"2 81406  65.8140 168.7529 0869026 252.0744  98.3764 13.12709251553841","mean_motion":13.12709251,"eccentricity":0.0869026,"inclination_deg":65.814,"raan_deg":168.7529,"arg_perigee_deg":252.0744,"mean_anomaly_deg":98.3764,"bstar":0.00039158,"rev_number":55384,"period_min":109.6967968271,"perigee_km":553.0335220809,"apogee_km":1872.3598927664,"semimajor_km":7590.8337074237,"source":"CELESTRAK","updated_at":"2026-05-25T13:38:09.452073Z"}}